Location: Chuathbaluk
(61.5726°N, 159.2454°W)
Time: 04:43:00
(UTC+00:00)

Transit 2A - Pass Details

Date: 01 December 2020
Orbit: 599 x 960 km, 66.7° (Epoch: 26 January)

Event Time Altitude Azimuth Distance (km) Brightness Sun altitude
Rises 12:57:48 0° 309° (NW) 3,344 - -42.6°
Reaches altitude 10° 13:01:11 10° 289° (WNW) 2,329 - -42.3°
Maximum altitude 13:04:20 16° 252° (WSW) 1,859 - -42.0°
Drops below altitude 10° 13:07:20 10° 215° (SW) 2,177 - -41.7°
Sets 13:10:21 0° 194° (SSW) 3,021 - -41.4°
